Temperature
12 13 13 13 13 13 13 13 13 13 13 13 14 14 14 14 14 14 14 14 14 14 14 14 15 15 15 15 15 15 15 15 15 15 15 15 15 15 15 15 15 15 15
12 12 13 12 12 13 13 13 13 13 13 13 13 13 13 13 13 14 14 14 14 14 14 14 14 14 14 14 14 15 15 15 15 15 15 14 14 15 15 15 15 15 15
12 12 12 12 12 12 13 13 13 13 13 13 13 13 13 13 13 13 13 14 14 14 14 14 14 14 14 14 14 14 14 14 14 14 14 14 14 14 15 15 15 15 15
12 12 12 12 12 12 12 12 13 13 13 13 13 13 13 13 13 13 13 13 13 13 14 14 14 14 14 14 14 14 14 14 14 14 14 13 13 14 14 14 14 14 14
12 12 12 12 12 12 12 12 12 12 12 12 13 13 13 13 13 13 13 13 13 13 13 13 13 14 14 14 14 14 14 14 14 14 13 13 13 14 14 14 14 14 14
11 11 12 12 12 12 12 12 12 12 12 12 12 12 12 12 12 12 13 13 13 13 13 13 13 13 13 13 13 13 13 14 13 13 13 13 13 13 14 14 14 14 14
11 11 11 11 12 12 12 12 12 12 12 12 12 12 12 12 12 12 12 12 12 12 12 12 13 13 13 13 13 13 13 13 13 13 13 13 13 13 13 13 13 13 13
11 11 11 11 11 11 11 11 11 11 11 11 11 11 12 12 12 12 12 12 12 12 12 12 12 12 12 12 13 13 13 13 13 12 13 12 13 13 13 13 13 13 13
10 10 10 11 11 11 11 11 11 11 11 11 11 11 11 11 11 11 11 11 11 11 11 12 12 12 12 12 12 12 12 12 12 12 12 12 12 12 12 13 13 13 13
10 10 10 10 10 10 11 11 11 11 11 11 11 11 11 11 11 11 11 11 11 11 11 11 11 11 11 12 12 12 12 12 12 12 12 12 12 12 12 12 12 12 12
9 10 10 10 10 10 10 10 10 10 10 10 10 10 10 10 10 10 11 10 11 11 11 11 11 11 11 11 11 11 11 11 11 11 11 12 12 12 12 12 12 12 12
9 9 9 9 9 10 10 10 10 10 9 10 10 10 10 10 10 10 10 10 10 10 10 10 10 10 11 11 11 11 11 11 11 11 11 11 11 11 12 12 12 12 12
8 9 9 9 9 9 9 9 9 9 9 9 9 9 9 9 9 9 9 9 10 10 10 10 10 10 10 10 10 10 10 10 10 10 10 11 11 11 11 11 11 11 11
8 8 8 8 8 9 9 9 8 8 8 8 9 9 9 9 9 9 9 9 9 9 9 9 9 9 9 9 10 10 10 10 10 10 10 10 10 11 11 11 11 11 11
7 8 8 8 8 8 8 8 8 8 8 8 8 8 8 8 8 8 8 8 8 8 9 9 9 9 9 9 9 9 9 9 9 9 10 10 10 10 10 10 11 11 11
7 7 7 7 7 7 7 7 7 7 7 7 7 7 7 8 8 8 8 8 8 8 8 8 8 8 8 8 8 9 9 9 9 9 9 9 10 10 10 10 10 10 10
6 6 7 7 7 7 7 7 7 7 7 7 7 7 7 7 7 7 7 7 7 8 8 7 8 8 8 8 8 8 8 8 8 8 8 9 9 9 9 10 10 10 10
6 6 6 6 6 6 6 6 6 6 6 6 6 6 6 6 6 6 7 7 7 7 7 7 7 7 7 7 7 7 7 8 8 8 8 8 8 9 9 9 9 9 10
5 5 5 5 5 5 5 5 5 5 5 5 6 5 6 6 6 6 6 6 6 6 6 6 6 6 6 7 7 7 7 7 7 7 7 8 8 8 8 8 9 9 9
4 4 4 5 5 5 5 5 5 5 5 5 5 5 5 5 5 5 5 5 5 5 5 5 6 6 6 6 6 6 6 6 7 7 7 7 7 7 8 8 8 8 9
3 4 4 4 4 4 4 4 4 4 4 4 4 4 4 4 4 4 5 5 5 5 5 5 5 5 5 5 5 5 6 6 6 6 6 6 6 7 7 7 7 8 8
3 3 3 3 3 3 3 3 3 3 3 4 4 3 4 4 4 4 4 4 4 4 4 4 4 4 4 4 4 4 5 5 5 5 6 6 6 6 6 6 7 7 7
2 2 2 2 2 3 3 3 3 3 3 3 3 3 3 3 3 3 3 3 3 4 4 4 4 4 4 4 4 4 4 4 4 5 5 5 5 5 6 6 6 6 7
1 1 1 2 2 2 2 2 2 2 2 2 2 2 2 2 2 2 3 3 3 3 3 3 3 3 3 3 3 3 3 3 3 3 4 4 5 5 5 5 5 6 6
0 0 1 1 1 1 1 1 1 1 1 1 2 2 2 2 2 2 2 2 2 2 2 2 3 3 2 2 3 3 3 3 3 3 3 4 4 4 4 5 5 5 5
-1 -1 -0 -0 0 0 0 0 0 0 1 1 1 1 1 1 1 1 1 1 1 1 2 2 2 2 2 2 2 2 2 2 2 2 2 2 3 4 4 4 5 5 5
Wind_Speed
4 4 3 4 6 7 8 9 9 9 10 10 9 9 9 10 10 10 10 11 11 11 12 12 12 12 12 13 13 13 13 13 13 13 14 13 13 13 13 12 12 14 15
5 5 4 4 6 8 8 9 9 9 9 9 9 9 9 10 10 10 10 10 10 11 11 12 12 12 12 13 13 13 13 13 12 12 12 12 12 12 12 12 12 13 14
6 6 5 5 6 8 8 9 9 9 8 8 8 9 9 9 9 9 10 10 10 10 11 11 12 12 12 12 13 12 12 12 11 9 8 9 11 11 12 12 13 13 13
6 6 5 6 7 8 8 9 8 8 8 8 8 9 9 9 9 9 9 9 9 10 10 11 11 11 12 12 12 12 11 10 9 6 7 8 9 11 11 11 12 12 12
6 5 6 7 8 8 9 9 8 8 9 8 9 9 9 9 9 9 9 9 9 9 10 10 10 11 11 11 11 11 10 10 7 5 7 8 8 10 10 10 11 11 12
5 5 7 8 9 9 9 9 8 8 9 9 9 9 9 9 9 9 9 9 9 8 9 9 9 9 10 10 10 10 9 8 5 6 6 7 7 9 9 9 10 10 11
5 5 6 7 8 9 9 9 9 9 9 10 10 10 9 9 8 9 8 8 8 8 8 8 9 9 9 9 9 9 8 6 6 6 6 6 7 8 8 9 9 10 10
5 5 6 7 8 9 9 9 9 9 10 10 10 10 10 10 9 8 8 8 8 8 8 8 8 8 8 8 8 8 7 5 5 6 6 6 7 7 8 8 8 9 9
5 5 5 6 7 8 9 9 9 9 10 10 10 10 10 10 9 8 8 7 7 7 7 7 7 7 7 7 7 7 6 5 4 5 5 5 6 7 7 7 7 7 8
5 4 4 4 5 5 6 8 9 9 9 9 10 9 9 8 8 8 8 7 6 6 6 6 6 7 7 7 7 6 4 2 4 4 4 5 6 5 6 6 6 7 7
3 3 3 3 3 4 4 5 7 8 8 8 8 8 6 5 5 5 7 7 6 5 5 5 5 6 6 6 6 5 2 2 3 3 4 5 5 4 5 5 5 6 6
2 2 2 2 2 3 3 3 4 4 5 5 5 5 4 4 4 4 6 6 6 5 5 5 4 4 3 3 3 2 2 2 2 2 3 4 4 3 4 4 4 5 5
2 1 1 1 2 2 2 2 3 3 4 4 5 4 4 4 3 3 3 3 4 3 3 3 2 2 1 1 1 1 1 1 1 1 2 3 3 2 3 3 3 4 5
2 1 1 1 1 2 2 2 3 3 3 3 3 4 3 3 3 3 2 2 2 2 1 1 1 1 1 1 1 1 1 1 1 1 2 3 1 1 0 2 2 3 4
2 1 0 1 1 1 2 2 2 3 3 3 3 3 3 2 2 2 2 2 2 2 2 1 0 1 1 1 1 1 1 1 0 0 1 2 1 1 1 2 2 3 3
2 1 0 0 1 1 1 1 2 3 3 3 3 3 2 2 2 1 1 2 2 2 2 1 0 0 0 0 0 0 0 0 0 0 0 0 1 0 1 2 3 3 4
2 1 0 0 1 1 1 1 2 2 3 3 3 3 2 2 2 1 1 1 2 2 2 1 1 0 1 1 0 0 0 0 1 1 1 1 0 1 1 1 3 3 4
1 1 0 0 0 0 1 1 2 2 3 2 2 2 2 2 1 1 0 1 1 1 1 1 1 1 1 1 1 1 0 0 1 1 1 1 1 1 1 1 1 2 2
1 1 0 1 0 0 1 1 1 2 2 2 2 2 1 1 0 0 0 0 1 1 1 1 1 1 2 1 1 1 1 1 1 1 1 1 1 1 2 1 1 0 2
1 0 0 0 1 1 0 1 1 1 1 1 1 1 1 1 0 1 0 1 1 1 1 1 2 1 1 1 1 1 2 2 1 1 2 1 1 2 2 2 2 1 1
1 1 0 0 1 1 0 0 1 1 1 0 0 0 0 0 1 1 1 1 1 2 2 2 2 2 1 1 1 1 2 2 2 2 2 2 2 2 2 2 2 2 1
1 1 1 1 1 1 1 1 2 2 1 1 0 0 0 1 1 1 1 2 2 2 2 2 2 2 2 2 1 2 2 3 2 2 2 2 2 2 2 2 2 2 2
2 2 2 2 1 1 1 1 1 1 1 1 1 1 1 2 2 2 2 2 3 3 3 3 3 4 3 2 2 2 2 3 1 2 2 2 2 2 3 2 3 3 3
3 3 2 2 2 1 1 1 2 2 2 2 2 2 2 2 2 3 3 3 2 2 3 4 4 4 4 3 3 2 3 2 2 2 2 2 2 3 3 3 3 4 4
3 3 3 3 3 2 2 2 3 3 3 2 2 2 2 2 3 3 3 3 3 3 3 4 4 5 5 4 3 3 3 3 4 3 3 3 2 3 3 4 3 3 3
4 3 3 3 3 3 3 2 3 3 3 3 3 3 2 2 3 3 4 4 4 4 4 4 4 5 6 6 5 4 4 3 3 3 4 4 4 3 4 4 4 3 3
Wind_Direction
146 139 110 100 107 105 104 102 97 91 92 91 91 88 87 85 83 82 80 79 77 76 75 75 77 76 76 78 79 79 80 79 77 75 76 79 85 88 88 88 93 90 88
141 138 121 105 106 104 105 106 102 96 91 89 89 88 87 86 83 83 80 79 77 75 75 75 77 77 76 79 80 79 79 82 80 78 81 84 86 88 87 83 80 89 90
137 134 130 110 108 103 105 103 101 100 95 92 90 88 85 84 82 82 80 77 76 75 74 74 76 77 77 77 78 78 77 80 83 81 89 93 91 91 91 89 88 90 91
134 132 127 114 110 103 102 99 99 100 99 93 89 87 85 82 80 81 82 79 77 76 77 76 75 77 77 77 76 75 74 73 78 85 90 88 91 93 94 94 94 94 94
127 126 115 114 110 105 101 95 95 94 93 90 88 87 85 83 80 79 79 81 79 79 81 81 79 78 77 77 77 75 71 67 71 86 90 90 90 93 94 95 97 97 97
120 119 114 110 110 108 104 97 95 92 86 84 85 84 82 81 79 77 74 75 76 79 82 84 84 82 79 79 79 77 71 65 76 87 92 93 93 93 93 96 101 101 101
114 106 108 105 107 104 102 98 91 87 83 77 74 72 72 74 74 74 71 71 72 76 81 84 84 83 79 77 79 79 72 56 73 82 84 89 91 94 94 95 100 105 105
108 98 98 96 95 97 96 92 88 83 83 79 74 69 66 66 66 69 70 71 70 73 78 83 83 82 82 79 79 79 73 62 78 78 82 87 89 95 97 94 97 104 109
97 92 91 100 96 91 89 89 87 84 82 80 76 72 69 65 62 63 65 68 70 72 74 78 80 82 81 81 79 76 70 54 81 83 79 83 92 99 99 101 101 106 110
91 86 87 95 99 99 94 88 85 83 83 83 78 74 72 70 66 62 62 63 68 75 78 81 81 82 79 82 80 74 71 70 95 89 83 84 83 100 103 102 104 108 114
90 82 81 88 89 93 96 93 91 88 84 85 82 78 79 77 70 66 57 56 62 72 77 81 82 87 86 87 83 75 84 96 89 89 87 79 80 92 106 107 111 112 117
131 105 79 86 91 93 90 101 104 96 88 80 85 85 80 77 67 63 66 61 58 63 78 78 78 91 104 107 100 97 111 87 81 96 90 76 71 86 100 118 123 122 121
155 121 70 67 97 102 91 94 93 92 86 79 78 72 74 75 71 59 59 63 59 57 78 80 92 94 99 98 108 109 90 86 83 88 83 69 56 71 104 112 129 134 134
167 147 63 32 63 96 100 95 96 91 85 78 76 71 67 62 58 46 35 31 30 25 39 74 90 99 100 123 128 114 88 77 81 76 72 67 60 31 145 151 145 147 151
194 188 10 17 27 61 93 94 94 97 95 89 73 68 69 70 59 47 33 25 18 12 3 7 96 96 96 108 111 122 104 85 103 148 108 74 60 245 244 217 191 183 172
216 242 242 68 29 47 87 103 106 109 109 103 85 70 65 71 70 50 25 18 14 0 344 337 348 140 166 122 104 105 134 143 172 244 224 116 42 312 241 225 211 207 196
225 230 308 134 45 54 84 114 126 123 122 106 98 92 73 61 64 66 38 4 360 348 339 331 338 185 183 181 196 334 316 252 223 250 267 243 221 16 346 247 223 213 211
219 224 345 10 124 51 59 95 131 132 120 112 111 106 85 66 65 60 67 342 332 324 307 270 277 255 228 227 244 294 290 273 253 254 256 262 253 259 303 333 275 214 211
247 217 257 19 22 112 73 81 110 122 114 112 110 105 102 83 26 21 108 268 269 267 259 254 252 254 237 234 252 279 281 267 272 256 245 267 273 277 272 270 301 306 219
307 231 213 157 24 25 104 91 98 111 102 105 107 100 100 95 309 327 232 219 236 226 239 247 245 241 237 223 234 264 273 266 256 250 243 244 268 266 270 263 241 246 222
353 341 291 307 28 47 80 194 210 226 219 157 93 112 117 152 284 299 304 231 234 231 233 235 231 220 229 233 236 248 253 235 234 242 242 236 240 246 253 263 252 240 226
345 327 328 303 296 289 282 282 264 259 237 243 241 191 249 252 257 261 275 255 231 234 230 225 221 229 237 240 243 231 226 218 211 244 252 245 247 243 239 247 248 243 231
347 333 315 311 296 299 312 329 315 257 230 221 232 246 261 250 239 251 251 251 228 225 225 229 229 229 232 240 256 242 230 227 257 226 241 251 262 258 247 253 252 243 232
350 346 339 336 322 315 309 287 272 255 249 255 252 249 258 243 243 244 246 243 240 235 235 235 235 239 230 231 238 260 268 270 234 229 223 228 262 268 266 264 258 250 237
359 360 353 349 346 342 321 295 278 277 274 264 261 250 253 251 246 243 245 247 244 245 244 242 237 234 231 233 235 242 243 250 241 236 240 244 261 266 272 272 263 250 240
3 5 359 354 348 346 336 307 284 277 283 274 263 261 259 256 254 249 246 247 247 247 247 245 242 238 237 236 236 236 235 236 234 236 249 248 254 264 269 262 257 249 236
Height
1532 1533 1534 1536 1537 1537 1538 1539 1539 1540 1540 1540 1541 1541 1541 1541 1541 1541 1541 1541 1541 1542 1542 1542 1542 1542 1542 1542 1542 1542 1543 1543 1543 1543 1543 1543 1543 1543 1543 1543 1544 1544 1544
1531 1533 1534 1536 1537 1537 1538 1539 1539 1540 1540 1541 1541 1541 1541 1541 1541 1542 1542 1542 1542 1542 1542 1542 1542 1542 1542 1543 1543 1543 1544 1544 1544 1544 1544 1544 1544 1544 1545 1545 1545 1545 1545
1531 1533 1534 1536 1537 1537 1538 1539 1539 1540 1540 1541 1541 1542 1542 1542 1542 1542 1542 1542 1543 1543 1543 1543 1543 1543 1543 1543 1543 1544 1544 1545 1545 1545 1546 1546 1546 1546 1546 1546 1546 1546 1547
1531 1533 1534 1535 1537 1537 1539 1539 1540 1540 1541 1541 1541 1542 1542 1542 1542 1542 1542 1542 1543 1543 1543 1543 1543 1543 1543 1544 1544 1544 1544 1545 1545 1546 1547 1547 1547 1547 1547 1547 1547 1547 1548
1531 1533 1534 1535 1536 1537 1538 1539 1539 1540 1540 1541 1541 1541 1542 1542 1542 1542 1542 1543 1543 1543 1543 1543 1543 1544 1544 1544 1544 1544 1545 1545 1546 1547 1547 1548 1548 1548 1548 1548 1548 1548 1549
1531 1533 1534 1535 1536 1537 1538 1539 1539 1540 1540 1541 1541 1541 1541 1542 1542 1542 1542 1542 1543 1543 1543 1543 1543 1544 1544 1544 1544 1545 1545 1546 1546 1547 1548 1548 1549 1548 1549 1549 1549 1549 1549
1531 1533 1534 1535 1536 1537 1538 1538 1539 1540 1540 1540 1540 1541 1541 1541 1541 1542 1542 1542 1542 1542 1543 1543 1543 1543 1544 1544 1544 1545 1545 1546 1547 1547 1548 1548 1549 1549 1549 1549 1550 1550 1550
1531 1533 1534 1535 1536 1537 1537 1538 1538 1539 1539 1540 1540 1540 1540 1540 1541 1541 1541 1542 1542 1542 1542 1543 1543 1543 1543 1544 1544 1545 1545 1546 1547 1547 1548 1549 1549 1549 1550 1550 1550 1550 1551
1531 1532 1533 1534 1535 1536 1537 1537 1538 1538 1539 1539 1539 1539 1540 1540 1540 1540 1541 1541 1541 1542 1542 1542 1542 1543 1543 1543 1544 1544 1545 1546 1547 1547 1548 1548 1549 1549 1550 1550 1550 1551 1551
1531 1532 1533 1534 1535 1535 1536 1537 1537 1537 1538 1538 1538 1538 1539 1539 1539 1539 1540 1540 1540 1540 1541 1541 1541 1542 1542 1543 1543 1544 1544 1545 1546 1547 1547 1548 1548 1549 1549 1550 1550 1551 1551
1530 1531 1532 1533 1534 1534 1535 1535 1536 1536 1537 1537 1537 1537 1538 1538 1538 1538 1538 1539 1539 1539 1539 1540 1540 1540 1541 1541 1542 1543 1543 1544 1545 1546 1546 1547 1548 1548 1549 1549 1550 1551 1551
1528 1530 1530 1531 1532 1533 1534 1534 1535 1535 1535 1535 1536 1536 1536 1537 1537 1537 1537 1537 1538 1538 1538 1538 1539 1539 1539 1540 1541 1542 1542 1543 1544 1544 1545 1546 1547 1547 1548 1549 1549 1550 1550
1527 1528 1529 1530 1531 1531 1532 1532 1533 1533 1533 1534 1534 1534 1534 1535 1535 1535 1536 1536 1536 1536 1536 1536 1537 1537 1538 1538 1539 1540 1541 1541 1542 1543 1543 1544 1545 1546 1547 1547 1548 1549 1550
1525 1526 1527 1528 1529 1529 1530 1530 1531 1531 1531 1532 1532 1532 1533 1533 1533 1533 1534 1534 1534 1534 1534 1535 1535 1536 1536 1537 1537 1538 1539 1539 1540 1541 1541 1542 1543 1544 1545 1546 1547 1548 1549
1523 1524 1525 1526 1526 1527 1527 1528 1528 1529 1529 1530 1530 1530 1531 1531 1531 1531 1532 1532 1532 1532 1532 1533 1533 1533 1534 1535 1535 1536 1536 1537 1538 1539 1539 1540 1541 1542 1543 1545 1545 1546 1548
1521 1522 1523 1523 1524 1525 1525 1526 1526 1527 1527 1527 1528 1528 1528 1529 1529 1529 1529 1529 1529 1530 1530 1531 1531 1531 1532 1532 1533 1533 1534 1534 1535 1536 1537 1538 1539 1540 1541 1542 1543 1544 1546
1518 1519 1520 1521 1521 1522 1523 1523 1524 1524 1525 1525 1526 1526 1526 1526 1526 1526 1526 1527 1527 1527 1527 1528 1528 1529 1529 1530 1530 1531 1531 1532 1533 1534 1535 1535 1536 1537 1538 1540 1541 1542 1543
1516 1517 1517 1518 1519 1519 1520 1521 1521 1522 1522 1523 1523 1523 1523 1523 1524 1524 1523 1524 1524 1524 1524 1525 1526 1526 1527 1527 1527 1528 1529 1529 1530 1531 1532 1533 1534 1534 1535 1537 1538 1539 1540
1513 1514 1515 1515 1516 1516 1517 1518 1518 1519 1519 1520 1520 1520 1520 1520 1520 1520 1521 1521 1521 1521 1522 1522 1523 1523 1524 1524 1525 1525 1526 1526 1527 1528 1529 1530 1531 1532 1533 1534 1535 1536 1537
1511 1511 1512 1512 1513 1513 1514 1515 1516 1516 1516 1517 1517 1517 1517 1517 1517 1517 1517 1518 1518 1518 1519 1519 1520 1520 1521 1521 1522 1522 1523 1523 1524 1524 1525 1526 1527 1528 1529 1530 1532 1533 1534
1508 1508 1509 1509 1510 1510 1511 1512 1512 1513 1513 1514 1514 1514 1514 1514 1514 1514 1514 1514 1515 1515 1516 1516 1516 1517 1518 1519 1519 1520 1520 1520 1521 1521 1522 1523 1524 1525 1526 1527 1528 1529 1531
1506 1506 1506 1506 1506 1507 1508 1508 1509 1510 1510 1510 1510 1510 1510 1510 1510 1510 1510 1510 1511 1512 1512 1513 1513 1513 1514 1515 1517 1517 1518 1519 1518 1518 1519 1520 1521 1522 1523 1524 1525 1526 1527
1503 1503 1503 1503 1503 1504 1505 1505 1506 1506 1507 1507 1507 1507 1507 1507 1507 1507 1507 1507 1507 1508 1508 1509 1510 1511 1511 1512 1513 1515 1516 1515 1515 1515 1515 1516 1517 1518 1519 1520 1521 1522 1524
1501 1501 1501 1501 1501 1501 1502 1502 1502 1502 1502 1503 1503 1503 1503 1503 1503 1503 1503 1504 1504 1504 1505 1506 1506 1507 1508 1509 1510 1510 1512 1512 1513 1512 1513 1513 1514 1514 1516 1517 1518 1519 1520
1500 1499 1498 1498 1498 1498 1498 1499 1499 1499 1499 1499 1499 1499 1499 1500 1500 1500 1500 1500 1500 1501 1501 1502 1502 1503 1504 1505 1506 1506 1507 1508 1509 1510 1509 1510 1510 1511 1511 1512 1513 1515 1516
1498 1497 1497 1496 1496 1495 1496 1495 1495 1495 1495 1495 1495 1495 1496 1495 1496 1496 1496 1496 1496 1497 1497 1498 1498 1499 1500 1501 1502 1503 1503 1504 1505 1506 1506 1506 1506 1506 1507 1508 1509 1510 1511